Weather reports worldwide

Advertisment
Dalwhinnie, United Kingdom (99005): temperature & dewpoint: 10.12.2017 05:00:00 - 16.12.2017 05:00:00 (GMT)Dalwhinnie, United Kingdom (99005): precipitation: 10.12.2017 05:00:00 - 16.12.2017 05:00:00 (GMT)
Date & Time tt [°C] td [°C] rr [mm]
16.12.2017 05:00:00 - - -
16.12.2017 04:00:00 -6,1 -7,3 0,0
16.12.2017 03:00:00 -3,4 -4,9 0,0
16.12.2017 02:00:00 -3,7 -5,4 0,0
16.12.2017 01:00:00 -2,0 -4,1 0,0
16.12.2017 00:00:00 -1,3 -3,6 0,0
15.12.2017 23:00:00 -0,7 -2,2 0,0
15.12.2017 22:00:00 0,0 -2,3 0,0
15.12.2017 21:00:00 -0,2 -2,3 0,0
15.12.2017 20:00:00 0,3 -2,1 0,0
15.12.2017 19:00:00 0,5 -1,0 0,0
15.12.2017 18:00:00 - - 0,0
15.12.2017 17:00:00 0,8 -0,2 0,0
15.12.2017 16:00:00 0,5 -0,5 0,0
15.12.2017 15:00:00 1,5 -1,2 0,0
15.12.2017 14:00:00 1,6 -1,3 0,0
15.12.2017 13:00:00 1,2 -0,8 0,0
15.12.2017 12:00:00 1,7 -1,3 0,0
15.12.2017 11:00:00 0,8 -1,4 0,0
15.12.2017 10:00:00 0,8 -1,7 0,0
15.12.2017 09:00:00 0,9 -1,4 0,0
15.12.2017 08:00:00 1,1 -1,3 0,0
15.12.2017 07:00:00 1,5 -0,2 0,0
15.12.2017 06:00:00 1,5 -0,6 0,0
15.12.2017 05:00:00 1,9 -0,2 0,0
15.12.2017 04:00:00 2,0 0,4 0,0
15.12.2017 03:00:00 0,9 0,2 0,0
15.12.2017 02:00:00 1,1 0,0 0,0
15.12.2017 01:00:00 1,1 0,4 0,0
15.12.2017 00:00:00 -0,1 -0,4 0,0
14.12.2017 23:00:00 -0,2 -0,4 0,0
14.12.2017 22:00:00 -0,2 -0,4 0,0
14.12.2017 21:00:00 -0,6 -0,9 0,0
14.12.2017 20:00:00 -0,5 -0,7 0,0
14.12.2017 19:00:00 -0,5 -0,8 0,0
14.12.2017 18:00:00 -0,8 -1,2 0,0
14.12.2017 17:00:00 -1,4 -2,2 0,0
14.12.2017 16:00:00 -0,7 -2,0 0,0
14.12.2017 15:00:00 0,0 -2,1 0,0
14.12.2017 14:00:00 -0,3 -2,1 0,0
14.12.2017 13:00:00 -1,6 -3,8 0,0
14.12.2017 12:00:00 -1,6 -2,1 0,0
14.12.2017 11:00:00 -2,2 -2,9 0,0
14.12.2017 10:00:00 -1,8 -2,5 0,0
14.12.2017 09:00:00 -1,5 -2,1 0,0
14.12.2017 08:00:00 -1,0 -1,8 0,0
14.12.2017 07:00:00 -0,6 -1,7 0,0
14.12.2017 06:00:00 0,1 -1,4 0,0
14.12.2017 05:00:00 0,5 -1,2 0,0
14.12.2017 04:00:00 0,2 -1,3 0,0
14.12.2017 03:00:00 0,4 -1,2 0,0
14.12.2017 02:00:00 -0,1 -1,2 0,0
14.12.2017 01:00:00 0,1 -0,6 0,0
14.12.2017 00:00:00 0,0 -1,8 0,0
13.12.2017 23:00:00 -0,3 -2,1 0,0
13.12.2017 22:00:00 -0,7 -2,6 0,0
13.12.2017 21:00:00 -0,5 -2,3 0,0
13.12.2017 20:00:00 -0,5 -2,2 0,0
13.12.2017 19:00:00 -0,9 -1,9 0,0
13.12.2017 18:00:00 -0,6 -1,3 0,0
13.12.2017 17:00:00 -0,4 -0,7 0,0
13.12.2017 16:00:00 -0,2 -0,6 0,0
13.12.2017 15:00:00 0,0 -0,8 0,0
13.12.2017 14:00:00 0,2 -0,6 0,0
13.12.2017 13:00:00 1,0 -0,9 0,0
13.12.2017 12:00:00 0,8 -0,9 0,0
13.12.2017 11:00:00 0,9 -0,9 0,4
13.12.2017 10:00:00 1,2 -0,1 0,8
13.12.2017 09:00:00 1,4 0,5 1,0
13.12.2017 08:00:00 0,8 0,1 1,2
13.12.2017 07:00:00 1,3 0,9 1,4
13.12.2017 06:00:00 1,5 0,4 0,8
13.12.2017 05:00:00 1,8 0,8 0,2
13.12.2017 04:00:00 1,8 0,2 0,2
13.12.2017 03:00:00 1,8 -0,3 0,6
13.12.2017 02:00:00 2,4 -0,4 0,4
13.12.2017 01:00:00 2,5 -0,3 0,2
13.12.2017 00:00:00 2,6 0,3 1,2
12.12.2017 23:00:00 2,4 0,6 1,0
12.12.2017 22:00:00 1,3 0,3 0,8
12.12.2017 21:00:00 1,2 0,2 4,2
12.12.2017 20:00:00 1,2 0,1 0,0
12.12.2017 19:00:00 1,4 0,1 0,0
12.12.2017 18:00:00 1,5 -0,2 0,0
12.12.2017 17:00:00 0,9 -0,2 0,0
12.12.2017 16:00:00 1,2 -0,5 0,0
12.12.2017 15:00:00 1,1 -0,9 0,0
12.12.2017 14:00:00 1,4 0,2 0,0
12.12.2017 13:00:00 0,6 -0,2 -
12.12.2017 12:00:00 -4,0 -4,6 0,0
12.12.2017 11:00:00 -5,6 -6,4 0,0
12.12.2017 10:00:00 -6,1 -6,9 0,0
12.12.2017 09:00:00 -5,9 -6,8 0,0
12.12.2017 08:00:00 -6,4 -7,1 0,0
12.12.2017 07:00:00 -7,2 -7,9 0,0
12.12.2017 06:00:00 -8,4 -9,4 0,0
12.12.2017 05:00:00 -6,8 -7,4 0,0
12.12.2017 04:00:00 -7,4 -8,3 0,0
12.12.2017 03:00:00 -5,7 -6,4 0,0
12.12.2017 02:00:00 -6,1 -6,8 0,0
12.12.2017 01:00:00 -5,9 -6,6 0,0
12.12.2017 00:00:00 -4,6 -5,4 0,0
11.12.2017 23:00:00 -2,8 -3,9 0,0
11.12.2017 22:00:00 -1,8 -3,6 0,0
11.12.2017 21:00:00 0,2 -1,3 0,0
11.12.2017 20:00:00 -1,0 -2,8 0,0
11.12.2017 19:00:00 -1,8 -2,8 0,0
11.12.2017 18:00:00 -0,6 -2,7 0,0
11.12.2017 17:00:00 0,3 -1,4 0,0
11.12.2017 16:00:00 0,4 -1,5 0,0
11.12.2017 15:00:00 0,7 -0,9 0,0
11.12.2017 14:00:00 0,7 -1,2 0,0
11.12.2017 13:00:00 0,8 -0,5 0,0
11.12.2017 12:00:00 0,7 -0,6 0,0
11.12.2017 11:00:00 0,2 -0,9 0,0
11.12.2017 10:00:00 -0,3 -1,1 0,0
11.12.2017 09:00:00 -0,8 -1,5 0,0
11.12.2017 08:00:00 -2,7 -3,0 0,0
11.12.2017 07:00:00 -4,6 -5,3 0,0
11.12.2017 06:00:00 -4,1 -4,6 0,0
11.12.2017 05:00:00 -4,1 -4,7 0,0
11.12.2017 04:00:00 -4,3 -4,7 0,0
11.12.2017 03:00:00 -6,1 -6,7 0,0
11.12.2017 02:00:00 -6,3 -7,1 0,0
11.12.2017 01:00:00 -4,5 -5,0 0,0
11.12.2017 00:00:00 -7,3 -8,0 0,0
10.12.2017 23:00:00 -9,0 -10,1 0,0
10.12.2017 22:00:00 -7,8 -8,5 0,0
10.12.2017 21:00:00 -11,2 -12,3 0,0
10.12.2017 20:00:00 -11,6 -12,6 0,0
10.12.2017 19:00:00 -10,6 -11,6 0,0
10.12.2017 18:00:00 -11,2 -12,6 0,0
10.12.2017 17:00:00 -9,3 -10,5 0,0
10.12.2017 16:00:00 -11,1 -12,9 0,0
10.12.2017 15:00:00 -7,6 -9,5 0,0
10.12.2017 14:00:00 -5,7 -7,7 0,0
10.12.2017 13:00:00 -6,6 -7,6 0,0
10.12.2017 12:00:00 -7,1 -7,8 0,0
10.12.2017 11:00:00 -9,6 -10,6 0,0
10.12.2017 10:00:00 -9,5 -10,6 0,0
10.12.2017 09:00:00 -12,4 -13,6 0,0
10.12.2017 08:00:00 -11,2 -12,7 0,0
10.12.2017 07:00:00 -10,9 -11,8 0,0
10.12.2017 06:00:00 -10,5 -11,7 0,0
10.12.2017 05:00:00 -7,4 -8,4 0,0

tt = temperature
td = dewpoint
rr = precipitation

Next stations